User: anonymous   Login
Location: Couloutre
(47.4081°N, 3.2259°E)
Time: 17:14:00
(UTC+00:00)
Language:

H-2A R/B - Orbit

View from above orbital plane
View from above orbital plane
View from above satellite
View from above satellite

Ground track
Ground track

The orbit data is extracted from the following two-line orbital elements,

1 27601U 02056E   20151.64709589  .00000033  00000-0  27028-4 0  9995
2 27601  98.2274 188.3336 0071462 331.6473 135.6313 14.31951207912141
Epoch (UTC): 30 May 2020 15:31:49
Eccentricity: 0.0071462
inclination: 98.2274°
perigee height: 734 km
apogee height: 836 km
right ascension of ascending node: 188.3336°
argument of perigee: 331.6473°
revolutions per day: 14.31951207
mean anomaly at epoch: 135.6313°
orbit number at epoch: 91214

The dashed part of the orbit path shows where the satellite is in the earth's shadow,  

DLR